Location: Bouillancy
(49.1149°N, 2.9308°E)
Time: 07:42:00
(UTC+00:00)

CSL-04 Rocket - Pass Details

Date: 30 September 2020
Orbit: 806 x 860 km, 98.9° (Epoch: 29 October)

Event Time Altitude Azimuth Distance (km) Brightness Sun altitude
Rises 18:23:41 0° 157° (SSE) 3,391 6.5 -9.9°
Reaches altitude 10° 18:26:01 10° 155° (SSE) 2,467 5.8 -10.3°
Maximum altitude 18:31:29 74° 72° (ENE) 892 3.7 -11.1°
Drops below altitude 10° 18:37:03 10° 348° (NNW) 2,506 6.4 -12.0°
Sets 18:39:27 0° 347° (NNW) 3,449 7.2 -12.4°
